KB4SYV Weather Reports


time (UTC)temp
C
wind
direction
speed
KPH
gust
KPH
rain 1hr
cm
rain 24hr
cm
rain mn
cm
humidity
%
barometer
mb
20260505153003 21 121 1.6 6.4 0.00 0.00 0.00 57 1039.0
20260505152502 21 322 1.6 6.4 0.00 0.00 0.00 57 1039.0
20260505152002 21 254 0.0 4.8 0.00 0.00 0.00 59 1039.1
20260505151503 21 319 1.6 4.8 0.00 0.00 0.00 58 1038.9
20260505151002 21 117 0.0 8.0 0.00 0.00 0.00 60 1038.9
20260505150503 21 112 1.6 8.0 0.00 0.00 0.00 59 1039.0
20260505140503 18 22 0.0 0.0 0.00 0.00 0.00 65 1039.7
20260505125003 13 32 0.0 0.0 0.00 0.00 0.00 85 1039.0
20260505124502 13 32 0.0 0.0 0.00 0.00 0.00 87 1039.0
20260505124024 12 32 0.0 0.0 0.00 0.00 0.00 88 1038.8
20260505123503 12 32 0.0 0.0 0.00 0.00 0.00 88 1038.8
20260505123002 11 32 0.0 0.0 0.00 0.00 0.00 89 1038.9
20260505122503 11 32 0.0 0.0 0.00 0.00 0.00 90 1038.9
20260505122002 11 32 0.0 0.0 0.00 0.00 0.00 91 1038.8
20260505121503 11 32 0.0 0.0 0.00 0.00 0.00 92 1038.7
20260505121024 10 32 0.0 0.0 0.00 0.00 0.00 93 1038.8
20260505120524 10 32 0.0 0.0 0.00 0.00 0.00 95 1038.7
20260505120003 10 32 0.0 0.0 0.00 0.00 0.00 95 1038.6
20260505115503 10 32 0.0 0.0 0.00 0.00 0.00 95 1038.5
20260505115003 9 32 0.0 0.0 0.00 0.00 0.00 95 1038.5
20260505114503 9 32 0.0 0.0 0.00 0.00 0.00 95 1038.6
20260505114024 9 32 0.0 0.0 0.00 0.00 0.00 95 1038.5
20260505113502 8 32 0.0 0.0 0.00 0.00 0.00 95 1038.3
20260505113003 8 32 0.0 0.0 0.00 0.00 0.00 95 1038.3
20260505112503 8 32 0.0 0.0 0.00 0.00 0.00 95 1038.3
20260505112002 8 32 0.0 0.0 0.00 0.00 0.00 95 1038.1
20260505111503 8 32 0.0 0.0 0.00 0.00 0.00 95 1038.0
20260505111002 8 32 0.0 0.0 0.00 0.00 0.00 95 1038.0
20260505102003 8 32 0.0 0.0 0.00 0.00 0.00 94 1037.7
20260505101524 8 32 0.0 0.0 0.00 0.00 0.00 94 1037.8
20260505101024 8 32 0.0 0.0 0.00 0.00 0.00 94 1037.8
20260505100502 8 32 0.0 0.0 0.00 0.00 0.00 93 1037.8
20260505100003 9 32 0.0 0.0 0.00 0.00 0.00 93 1037.8
20260505095524 9 32 0.0 3.2 0.00 0.00 0.00 93 1037.9
20260505095024 9 32 0.0 3.2 0.00 0.00 0.00 93 1038.0
20260505094503 9 60 0.0 1.6 0.00 0.00 0.00 93 1037.9
20260505094003 9 164 0.0 0.0 0.00 0.00 0.00 93 1037.9
20260505093002 9 164 0.0 0.0 0.00 0.00 0.00 92 1037.9
20260505092503 9 164 0.0 0.0 0.00 0.00 0.00 92 1037.8
20260505092002 9 164 0.0 0.0 0.00 0.00 0.00 92 1037.8
20260505091503 9 164 0.0 0.0 0.00 0.00 0.00 92 1037.8
20260505091002 9 164 0.0 0.0 0.00 0.00 0.00 92 1037.9
20260505090503 10 164 0.0 3.2 0.00 0.00 0.00 92 1037.8
20260505090024 10 164 0.0 3.2 0.00 0.00 0.00 92 1037.8
20260505085503 10 42 0.0 3.2 0.00 0.00 0.00 92 1038.0
20260505085003 10 326 1.6 4.8 0.00 0.00 0.00 92 1037.9
20260505084502 10 229 0.0 4.8 0.00 0.00 0.00 92 1038.1
20260505084003 10 63 0.0 4.8 0.00 0.00 0.00 92 1038.1
20260505083502 10 33 0.0 0.0 0.00 0.00 0.00 91 1038.0
20260505083003 10 33 0.0 0.0 0.00 0.00 0.00 91 1038.0
20260505082503 10 33 0.0 0.0 0.00 0.00 0.00 91 1038.0
20260505082003 10 33 0.0 0.0 0.00 0.00 0.00 91 1037.9
20260505081503 10 33 0.0 0.0 0.00 0.00 0.00 91 1037.9
20260505081003 10 33 0.0 0.0 0.00 0.00 0.00 90 1038.1
20260505080524 10 33 0.0 0.0 0.00 0.00 0.00 90 1038.0
20260505080002 10 33 0.0 0.0 0.00 0.00 0.00 90 1038.0
20260505075503 10 33 0.0 0.0 0.00 0.00 0.00 90 1037.9
20260505075002 10 33 0.0 0.0 0.00 0.00 0.00 89 1037.9
20260505074503 10 33 0.0 0.0 0.00 0.00 0.00 89 1037.9
20260505074002 10 33 0.0 0.0 0.00 0.00 0.00 89 1037.9
20260505073503 10 33 0.0 0.0 0.00 0.00 0.00 89 1038.0
20260505073002 10 33 0.0 0.0 0.00 0.00 0.00 89 1037.9
20260505072502 10 33 0.0 0.0 0.00 0.00 0.00 89 1038.0
20260505072002 10 33 0.0 0.0 0.00 0.00 0.00 88 1038.0
20260505071503 10 33 0.0 0.0 0.00 0.00 0.00 88 1038.0
20260505071002 10 33 0.0 0.0 0.00 0.00 0.00 88 1037.9
20260505070523 11 33 0.0 0.0 0.00 0.00 0.00 88 1037.9
20260505070003 11 33 0.0 0.0 0.00 0.00 0.00 87 1037.9
20260505065502 11 33 0.0 3.2 0.00 0.00 0.00 87 1037.9
20260505065024 11 33 0.0 3.2 0.00 0.00 0.00 86 1037.9
20260505064502 11 240 1.6 3.2 0.00 0.00 0.00 86 1037.8
20260505064024 11 84 0.0 0.0 0.00 0.00 0.00 86 1037.8
20260505063502 11 84 0.0 3.2 0.00 0.00 0.00 86 1037.9
20260505063002 11 100 0.0 3.2 0.00 0.00 0.00 85 1037.9
20260505062502 11 264 0.0 3.2 0.00 0.00 0.00 85 1037.9
20260505062002 11 263 0.0 4.8 0.00 0.00 0.00 85 1037.9
20260505061503 11 262 1.6 4.8 0.00 0.00 0.00 84 1038.0
20260505061002 11 36 0.0 0.0 0.00 0.00 0.00 84 1037.9
20260505060503 12 36 0.0 0.0 0.00 0.00 0.00 83 1038.0
20260505060003 12 36 0.0 0.0 0.00 0.00 0.00 82 1038.1
20260505055502 12 36 0.0 1.6 0.00 0.00 0.00 81 1038.0
20260505055024 12 36 0.0 3.2 0.00 0.00 0.00 81 1038.1
20260505054503 12 25 0.0 3.2 0.00 0.00 0.00 80 1038.1
20260505054002 12 57 0.0 0.0 0.00 0.00 0.00 79 1038.0
20260505053503 12 57 0.0 0.0 0.00 0.00 0.00 78 1038.0
20260505053023 13 57 0.0 0.0 0.00 0.00 0.00 78 1038.0
20260505052502 13 57 0.0 1.6 0.00 0.00 0.00 77 1038.1
20260505052003 13 66 0.0 1.6 0.00 0.00 0.00 77 1038.1
20260505051503 13 46 0.0 4.8 0.00 0.00 0.00 76 1038.1
20260505051003 13 34 0.0 4.8 0.00 0.00 0.00 75 1038.0
20260505050502 13 262 0.0 3.2 0.00 0.00 0.00 73 1038.0
20260505041503 18 9 0.0 0.0 0.00 0.00 0.00 56 1037.7
20260505041002 18 9 0.0 4.8 0.00 0.00 0.00 55 1037.7
20260505040503 18 354 0.0 4.8 0.00 0.00 0.00 53 1037.6
20260505040003 18 312 0.0 4.8 0.00 0.00 0.00 53 1037.6
20260505035502 19 295 0.0 9.7 0.00 0.00 0.00 51 1037.7
20260505035002 19 311 3.2 12.9 0.00 0.00 0.00 51 1037.8
20260505034503 18 318 6.4 14.5 0.00 0.00 0.00 50 1037.7
20260505034024 18 305 6.4 14.5 0.00 0.00 0.00 51 1037.9
20260505033502 17 296 3.2 9.7 0.00 0.00 0.00 58 1037.9
20260505033024 16 219 0.0 9.7 0.00 0.00 0.00 60 1037.9
20260505032503 16 304 4.8 9.7 0.00 0.00 0.00 64 1037.9
20260505032002 15 255 0.0 9.7 0.00 0.00 0.00 68 1037.9
20260505031524 15 14 1.6 9.7 0.00 0.00 0.00 70 1037.8
20260505031002 14 266 0.0 9.7 0.00 0.00 0.00 72 1037.8
20260505030502 13 8 0.0 9.7 0.00 0.00 0.00 75 1037.8
20260505030003 13 154 1.6 9.7 0.00 0.00 0.00 76 1037.8
20260505025502 13 40 0.0 3.2 0.00 0.00 0.00 76 1037.8
20260505025003 13 250 0.0 3.2 0.00 0.00 0.00 76 1037.8
20260505024502 13 234 0.0 0.0 0.00 0.00 0.00 76 1037.7
20260505024003 14 234 0.0 0.0 0.00 0.00 0.00 75 1037.7
20260505023502 14 234 0.0 0.0 0.00 0.00 0.00 74 1037.8
20260505023003 14 234 0.0 0.0 0.00 0.00 0.00 74 1037.7
20260505022502 15 234 0.0 0.0 0.00 0.00 0.00 73 1037.7
20260505022003 15 234 0.0 0.0 0.00 0.00 0.00 73 1037.7
20260505021025 15 234 0.0 0.0 0.00 0.00 0.00 72 1037.6
20260505020503 15 234 0.0 0.0 0.00 0.00 0.00 71 1037.4
20260505020002 15 234 0.0 0.0 0.00 0.00 0.00 71 1037.4
20260505015502 15 234 0.0 0.0 0.00 0.00 0.00 71 1037.4
20260505015002 15 234 0.0 0.0 0.00 0.00 0.00 71 1037.3
20260505014524 15 234 0.0 0.0 0.00 0.00 0.00 70 1037.2
20260505014003 16 234 0.0 0.0 0.00 0.00 0.00 70 1037.3
20260505013503 16 234 0.0 0.0 0.00 0.00 0.00 69 1037.3
20260505013002 16 234 0.0 0.0 0.00 0.00 0.00 69 1037.2
20260505012503 16 234 0.0 0.0 0.00 0.00 0.00 68 1037.2
20260505012003 16 234 0.0 0.0 0.00 0.00 0.00 67 1037.1
20260505011503 16 234 0.0 0.0 0.00 0.00 0.00 67 1037.1
20260505011002 16 234 0.0 0.0 0.00 0.00 0.00 66 1037.0
20260505010503 17 234 0.0 0.0 0.00 0.00 0.00 65 1037.0
20260505010003 17 234 0.0 0.0 0.00 0.00 0.00 64 1037.0
20260505005502 17 234 0.0 0.0 0.00 0.00 0.00 63 1037.0
20260505005004 18 234 0.0 0.0 0.00 0.00 0.00 62 1036.9
20260505004502 18 234 0.0 0.0 0.00 0.00 0.00 61 1036.8
20260505004003 18 234 0.0 0.0 0.00 0.00 0.00 59 1036.8
20260505003502 18 234 0.0 0.0 0.00 0.00 0.00 59 1036.8
20260505003003 18 234 0.0 0.0 0.00 0.00 0.00 58 1036.8
20260505002502 19 234 0.0 0.0 0.00 0.00 0.00 58 1036.7
20260505002003 19 234 0.0 0.0 0.00 0.00 0.00 57 1036.7
20260505001502 20 234 0.0 0.0 0.00 0.00 0.00 56 1036.6
20260505001003 20 234 0.0 0.0 0.00 0.00 0.00 55 1036.7
20260505000503 20 234 0.0 0.0 0.00 0.00 0.00 54 1036.6
20260504235544 21 234 0.0 0.0 0.00 0.00 0.00 50 1036.5
20260504235003 22 234 0.0 0.0 0.00 0.00 0.00 48 1036.5
20260504234503 22 234 0.0 0.0 0.00 0.00 0.00 47 1036.4
20260504234003 22 234 0.0 0.0 0.00 0.00 0.00 44 1036.4
20260504233503 22 234 0.0 6.4 0.00 0.00 0.00 44 1036.4
20260504233023 23 234 0.0 6.4 0.00 0.00 0.00 43 1036.5
20260504232502 23 322 0.0 9.7 0.00 0.00 0.00 45 1036.4
20260504232002 23 340 3.2 9.7 0.00 0.00 0.00 40 1036.5
20260504231524 23 263 1.6 6.4 0.00 0.00 0.00 43 1036.5
20260504231003 23 261 1.6 6.4 0.00 0.00 0.00 42 1036.4
20260504230502 23 310 0.0 6.4 0.00 0.00 0.00 43 1036.4
20260504230003 23 272 1.6 8.0 0.00 0.00 0.00 41 1036.3
20260504225502 23 274 1.6 8.0 0.00 0.00 0.00 42 1036.4
20260504225003 23 242 1.6 8.0 0.00 0.00 0.00 43 1036.4
20260504224502 23 276 3.2 14.5 0.00 0.00 0.00 42 1036.4
20260504224003 23 323 3.2 14.5 0.00 0.00 0.00 42 1036.4
20260504223523 23 189 1.6 6.4 0.00 0.00 0.00 46 1036.3
20260504223003 23 306 1.6 6.4 0.00 0.00 0.00 43 1036.2
20260504222503 23 271 1.6 6.4 0.00 0.00 0.00 42 1036.3
20260504222002 23 130 0.0 4.8 0.00 0.00 0.00 42 1036.2
20260504221503 23 130 0.0 8.0 0.00 0.00 0.00 42 1036.3
20260504221002 24 319 1.6 8.0 0.00 0.00 0.00 42 1036.4
20260504220524 24 298 0.0 4.8 0.00 0.00 0.00 43 1036.4
20260504220002 24 323 0.0 6.4 0.00 0.00 0.00 41 1036.3
20260504215503 24 323 1.6 9.7 0.00 0.00 0.00 40 1036.3
20260504215002 24 356 3.2 9.7 0.00 0.00 0.00 40 1036.3
20260504214503 24 337 0.0 6.4 0.00 0.00 0.00 41 1036.3
20260504214003 24 120 1.6 6.4 0.00 0.00 0.00 42 1036.3
20260504213504 24 253 1.6 9.7 0.00 0.00 0.00 39 1036.4
20260504213003 24 237 1.6 9.7 0.00 0.00 0.00 41 1036.4
20260504212503 24 322 1.6 4.8 0.00 0.00 0.00 41 1036.3
20260504212003 24 285 0.0 4.8 0.00 0.00 0.00 40 1036.3
20260504211502 24 330 1.6 4.8 0.00 0.00 0.00 41 1036.3
20260504211003 23 224 1.6 6.4 0.00 0.00 0.00 42 1036.3
20260504210502 23 103 1.6 6.4 0.00 0.00 0.00 42 1036.3
20260504210003 23 278 3.2 6.4 0.00 0.00 0.00 41 1036.4
20260504205502 23 284 1.6 6.4 0.00 0.00 0.00 43 1036.5
20260504205003 23 268 3.2 8.0 0.00 0.00 0.00 42 1036.6
20260504204503 23 257 1.6 8.0 0.00 0.00 0.00 44 1036.7
20260504204003 23 310 3.2 8.0 0.00 0.00 0.00 44 1036.7
20260504203504 23 268 1.6 8.0 0.00 0.00 0.00 43 1036.6
20260504203023 23 274 3.2 8.0 0.00 0.00 0.00 43 1036.6
20260504202503 24 301 1.6 8.0 0.00 0.00 0.00 43 1036.7
20260504202002 24 262 1.6 6.4 0.00 0.00 0.00 42 1036.7
20260504201503 24 256 1.6 8.0 0.00 0.00 0.00 41 1036.8
20260504201002 24 347 1.6 9.7 0.00 0.00 0.00 42 1036.8
20260504200503 24 310 1.6 9.7 0.00 0.00 0.00 41 1036.9
20260504200002 25 120 0.0 4.8 0.00 0.00 0.00 42 1037.1
20260504195524 25 100 0.0 4.8 0.00 0.00 0.00 43 1037.1
20260504195002 24 114 0.0 8.0 0.00 0.00 0.00 40 1037.2
20260504194502 24 281 4.8 8.0 0.00 0.00 0.00 39 1037.3
20260504194002 24 196 1.6 11.3 0.00 0.00 0.00 43 1037.3
20260504193523 24 4 3.2 11.3 0.00 0.00 0.00 42 1037.4
20260504193003 24 27 3.2 12.9 0.00 0.00 0.00 41 1037.6
20260504192502 23 20 3.2 12.9 0.00 0.00 0.00 42 1037.6
20260504192003 23 349 1.6 11.3 0.00 0.00 0.00 42 1037.8
20260504191502 24 324 4.8 11.3 0.00 0.00 0.00 40 1037.9
20260504191023 23 311 4.8 8.0 0.00 0.00 0.00 41 1038.0
20260504190502 23 346 3.2 9.7 0.00 0.00 0.00 41 1038.0
20260504190004 23 294 1.6 11.3 0.00 0.00 0.00 40 1038.1
20260504185502 23 326 6.4 11.3 0.00 0.00 0.00 41 1038.1
20260504185003 23 270 1.6 9.7 0.00 0.00 0.00 42 1038.2
20260504184502 23 237 1.6 11.3 0.00 0.00 0.00 43 1038.3
20260504184003 23 245 3.2 11.3 0.00 0.00 0.00 42 1038.5
20260504183502 23 316 3.2 9.7 0.00 0.00 0.00 45 1038.4
20260504183003 23 220 0.0 6.4 0.00 0.00 0.00 46 1038.5
20260504182502 23 121 0.0 6.4 0.00 0.00 0.00 46 1038.6
20260504182003 23 152 3.2 8.0 0.00 0.00 0.00 46 1038.7
20260504181502 23 258 4.8 8.0 0.00 0.00 0.00 44 1038.7
20260504181002 23 238 0.0 8.0 0.00 0.00 0.00 46 1038.8
20260504180523 22 105 1.6 11.3 0.00 0.00 0.00 46 1038.9
20260504180003 22 316 1.6 11.3 0.00 0.00 0.00 44 1039.0
20260504175502 22 311 4.8 11.3 0.00 0.00 0.00 45 1039.0
20260504175003 22 212 3.2 6.4 0.00 0.00 0.00 46 1039.1
20260504174502 22 359 0.0 6.4 0.00 0.00 0.00 47 1039.2
20260504174002 22 236 3.2 11.3 0.00 0.00 0.00 46 1039.4
20260504173503 22 353 4.8 11.3 0.00 0.00 0.00 46 1039.4
20260504173002 22 275 0.0 11.3 0.00 0.00 0.00 45 1039.4
20260504172503 22 11 4.8 11.3 0.00 0.00 0.00 46 1039.6
20260504172002 22 341 1.6 6.4 0.00 0.00 0.00 46 1039.7
20260504171503 22 312 3.2 8.0 0.00 0.00 0.00 45 1039.8
20260504171002 22 293 4.8 8.0 0.00 0.00 0.00 45 1040.0
20260504170502 22 142 1.6 9.7 0.00 0.00 0.00 45 1040.1